OPS 4682 DEB, 38456

Orbit data source: Space-Track

OPS 4682 DEB, 38456 is space debris in LEO originally from a launch on Sat, 03 Apr 1965 UTC launched from the Air Force Western Test Range (AFWTR). Debris objects in space refer to the collection of defunct objects orbiting the Earth. Examples of debris include non-operational satellites, rocket bodies, and fragments generated from explosions, collisions, or faulty payload assembly.

Loading next visibility...
Identifier
38456, 1965-027FM
Orbit
LEO
Country
Flag of USUS
Related business
Manufacturer
Unknown
Mission
Spacecraft
Bus & Motor
Unknown
Mass
Unknown
Launch date (UTC)
1965-04-03 (61 years ago)
Launch vehicle
Unknown
Launch site
Air Force Western Test Range (AFWTR)
Object type
Payload
Rocket body
Debris
Shape & HBR
Unknown shape, 0.1 m
Radar Cross Section
Small (<0.1 m²)

Expand to show TLE details & history
Last TLE update: 1 week ago

TLE from 1 week ago
0 OPS 4682 DEB
1 38456U 65027FM  26122.38747605 -.00000235  00000-0 -83513-3 0  9994
2 38456  90.2631   2.7948 0021755 129.5921 230.7125 12.97422914 83998
Epoch: 2026-05-02T09:17Z
TLE epoch observation values (Epoch: 2026-05-02T09:17:57.930Z)
Latitude
-0.00004°
Longitude
2.99732°
Altitude
1,285.643 km
Speed
7.208 km/s
True Right ascension
00h 11m 10s
True Declination
0° 00' 00"
Sunlit
Object was in daylight at epoch
Visualization orbit readout
Latitude
Unknown
Longitude
Unknown
Altitude
Unknown
Speed
Unknown
Apparent Right ascension
Unknown
Apparent Declination
Unknown
Sunlit
N/A
Visualization observer readout
Local Sidereal Time
18:12:31
Azimuth
Unknown
Elevation
Unknown
Doppler factor
Unknown
Orbital elements
Apogee altitude
1,285.968 km
Perigee altitude
1,252.694 km
Semi-major axis
7,647.468 km
Eccentricity
0.00218
Inclination
90.2631°
RAAN
2.7948°
Arg. of periapsis
129.5921°
True anomaly
230.51988°
Mean anomaly
230.7125°
Eccentric anomaly
230.61616°
Mean motion
3.24539 °/min
Orbital period
110.93 mins
BSTAR
-0.00083513
Loading maneuver chart data...
Computing Atmospheric mass density...
Loading historical data...
Loading historical data...
Loading historical data...
Loading historical data...
Loading historical data...
Loading historical data...
Loading historical data...

Documentation

Showing up to 5 results
|